Wind_Speed
15 12 12 11 10 10 9 10 13 10 10 9 9 8 13 16 9 5 4 3 3 2 3 8 7 5 2 2 3 2 2 2 2 3 2 2 3 3 2 4 3 3 3 4 2 2 7 6 3 6 5 1 3 4
17 14 10 13 11 12 11 10 11 10 10 9 9 8 9 13 13 4 2 3 1 1 2 6 11 10 5 3 4 1 2 2 4 3 1 2 3 1 3 4 1 3 6 4 8 6 4 7 6 4 3 4 4 4
19 18 13 11 14 12 12 11 12 10 9 11 7 8 8 9 10 6 5 3 1 2 3 1 6 6 13 9 5 2 2 2 2 2 3 2 5 4 4 5 3 4 3 4 1 4 8 10 6 6 6 6 4 3
20 21 17 14 15 13 13 12 10 12 9 9 9 7 8 9 9 9 3 3 1 2 1 4 1 3 4 11 8 4 1 3 4 2 1 2 2 3 3 3 4 4 6 4 7 9 7 10 9 6 7 6 5 3
20 22 21 17 15 15 14 13 11 10 10 8 8 10 10 9 9 9 9 3 3 2 3 4 3 3 4 9 6 5 3 2 1 1 2 4 2 2 2 1 4 6 7 5 6 6 3 6 5 6 9 9 9 7
24 22 23 21 18 17 16 15 12 11 9 8 8 9 13 10 8 5 3 2 2 2 2 3 1 2 4 5 5 3 3 1 2 3 3 3 2 2 2 4 8 7 4 5 4 1 4 5 5 1 4 5 5 6
24 25 25 23 20 19 18 17 15 12 8 8 8 6 7 9 7 4 3 1 4 2 2 4 3 1 3 3 2 2 3 2 2 2 3 1 2 3 3 5 6 8 8 7 7 3 5 4 4 5 4 6 10 7
23 24 26 26 23 21 21 18 16 13 8 7 7 6 6 9 9 8 11 9 3 1 3 2 4 2 6 3 2 1 2 1 2 2 1 2 0 0 5 10 5 6 7 7 8 9 3 1 4 5 4 5 5 5
27 25 24 26 26 23 23 20 17 13 8 6 5 5 5 5 4 2 3 4 7 3 2 3 3 4 2 1 2 1 1 1 1 3 3 3 3 6 9 7 7 7 5 4 0 5 6 6 6 6 6 6 7 7
25 27 26 26 27 25 24 23 18 13 8 7 5 2 3 4 4 3 1 2 3 2 1 3 1 2 3 0 1 3 0 2 2 3 3 3 5 12 12 10 7 6 7 5 4 4 5 5 8 8 10 7 6 6
25 25 26 27 26 26 26 24 21 15 13 7 5 3 2 3 3 2 1 2 0 3 3 2 4 3 2 3 3 2 3 1 1 3 3 3 4 5 5 4 4 6 7 9 9 5 7 6 8 8 6 7 9 10
23 25 25 23 26 26 28 27 25 23 13 12 8 4 3 1 2 2 3 1 4 5 1 3 3 3 1 1 2 2 2 2 5 1 0 4 5 6 3 5 6 6 6 8 9 8 7 7 7 7 6 7 10 12
21 23 26 24 25 27 32 31 31 27 17 8 2 3 3 1 1 7 8 4 3 5 4 3 1 1 1 1 2 2 2 5 2 1 4 5 4 4 5 4 6 4 3 3 5 3 2 2 3 7 7 11 16 16
21 21 23 24 23 27 36 35 36 29 11 3 5 6 7 5 7 7 4 4 4 4 6 4 3 3 1 2 2 2 2 2 2 3 6 3 5 3 3 2 2 2 3 3 3 4 5 5 6 10 16 16 16 13
21 22 22 24 23 25 39 37 37 28 8 4 5 7 9 4 2 1 1 1 2 5 6 4 3 2 2 2 1 2 3 4 6 5 3 3 4 2 2 1 4 5 4 4 3 3 5 11 11 10 14 17 15 13
20 24 26 23 22 26 41 40 29 18 5 3 4 2 1 2 3 2 2 2 3 5 2 3 4 3 4 5 4 8 4 6 4 4 3 2 2 2 3 3 4 4 4 5 8 9 10 12 12 12 14 15 16 15
17 11 13 14 17 21 43 20 7 6 6 5 5 3 3 1 3 3 5 4 7 4 3 3 6 8 3 1 4 6 6 4 4 4 3 4 4 3 4 3 3 4 5 9 10 12 14 14 14 15 8 18 17 17
22 22 16 15 14 20 7 5 5 6 8 6 4 5 3 3 4 2 3 4 5 3 4 5 4 3 6 6 4 4 5 3 4 4 3 4 4 4 4 5 6 9 11 14 17 16 16 17 13 12 19 20 18 16
24 19 17 17 17 9 4 5 5 5 8 2 3 2 2 2 2 4 5 7 1 1 5 2 4 5 5 4 4 4 3 4 3 4 4 6 11 8 9 10 10 10 13 13 15 14 17 24 21 20 22 23 16 21
24 24 22 19 22 6 5 3 6 3 4 3 2 4 3 3 4 4 7 8 4 2 4 4 6 4 4 3 5 3 3 4 3 3 4 4 9 12 11 12 10 16 14 14 18 16 17 16 24 25 25 24 19 19
24 25 22 18 9 6 2 3 4 3 3 3 4 6 3 1 1 4 5 6 4 4 5 6 5 9 6 4 9 7 5 6 6 6 5 4 5 12 12 17 19 15 8 7 6 10 18 17 19 25 25 23 28 26
18 21 9 13 4 5 3 6 2 3 3 1 5 4 3 4 4 4 5 4 5 12 6 6 10 11 10 14 12 16 17 17 19 11 10 8 5 4 5 10 7 6 9 13 13 11 17 19 20 24 27 26 22 21
14 10 6 5 5 6 4 7 4 5 4 5 4 5 3 3 3 7 5 5 7 4 9 12 13 16 15 26 14 13 25 19 10 9 10 12 15 18 15 17 17 9 7 13 20 20 17 19 21 23 25 20 23 22
11 6 7 7 7 6 3 4 1 3 3 3 5 4 3 4 4 3 5 6 6 2 6 12 10 12 13 16 14 16 19 19 14 16 20 11 8 10 18 19 19 23 21 18 17 19 21 21 20 21 23 23 22 20
4 7 6 5 4 3 6 5 4 3 5 4 4 4 3 4 5 5 5 3 4 6 8 10 13 15 15 13 10 9 23 21 9 10 19 18 16 13 9 17 21 24 18 17 15 18 18 19 19 21 23 24 22 21
8 9 9 9 5 6 7 7 8 7 3 4 7 1 2 4 4 8 4 5 11 9 11 13 13 11 11 12 12 10 14 22 20 8 15 22 20 9 7 6 4 7 19 24 18 16 17 19 21 23 22 23 23 21
6 8 4 2 4 4 2 2 2 4 7 8 4 5 4 5 7 6 3 5 10 9 19 19 14 11 12 9 17 22 13 18 21 16 15 12 19 23 21 8 6 12 8 16 23 24 23 22 22 23 19 20 23 25
4 5 8 7 3 1 5 3 5 8 5 4 7 7 9 10 8 4 6 4 9 8 9 17 23 22 18 19 18 15 16 19 21 12 9 14 17 18 20 22 21 14 9 9 17 22 24 26 25 24 24 24 23 24
4 4 5 5 3 4 7 9 7 5 3 6 7 5 6 4 3 3 3 4 5 4 1 3 7 12 12 9 11 19 17 25 9 6 7 6 3 10 15 21 21 17 13 12 13 17 22 24 25 27 27 25 25 23
7 6 5 5 7 9 6 7 3 3 3 4 3 3 3 3 5 14 13 8 2 5 8 6 9 14 6 6 4 11 20 25 25 10 6 7 7 6 5 9 14 16 16 16 18 15 15 18 19 21 23 21 21 21
7 6 3 5 6 4 3 2 2 1 0 3 2 4 13 4 4 13 22 26 21 14 6 3 6 14 8 6 6 5 6 29 33 33 25 13 8 9 8 9 13 17 18 20 23 24 24 25 25 25 25 22 22 22
4 10 6 5 4 3 1 3 2 2 2 2 4 1 3 1 5 4 17 20 10 5 13 14 5 7 30 30 28 30 17 13 14 18 24 26 21 14 11 14 18 20 22 24 26 26 28 26 23 23 23 23 25 23
3 3 1 2 0 1 2 3 2 4 3 4 5 5 5 8 17 6 9 26 28 23 19 26 33 31 30 33 36 32 24 21 17 13 12 14 19 21 21 22 23 24 25 27 27 29 28 26 25 24 24 25 24 21
Wind_Direction
283 280 281 274 282 292 302 320 332 320 317 302 305 328 349 353 349 299 317 271 336 163 230 188 181 156 142 188 172 250 46 328 52 75 144 217 200 248 305 240 216 210 158 215 124 234 289 164 100 174 216 225 200 203
277 274 273 270 269 282 288 302 323 322 308 309 299 307 333 344 356 306 291 282 292 199 266 229 228 238 236 211 152 165 200 173 194 101 203 122 245 233 191 275 197 255 194 193 186 217 227 207 206 214 168 185 212 201
278 267 265 260 267 271 274 289 307 320 300 303 301 297 312 330 347 341 304 256 251 65 311 314 240 244 234 242 227 157 282 183 186 182 160 176 239 138 208 237 239 249 169 226 10 250 232 230 230 217 192 215 220 226
277 270 263 255 261 261 264 273 292 312 299 293 309 303 293 308 328 346 314 276 232 89 187 283 268 249 244 220 217 214 190 83 89 80 146 179 218 164 235 265 214 212 147 212 261 279 277 264 239 215 205 199 175 158
272 270 269 261 253 255 255 262 274 295 296 277 286 299 291 289 302 312 307 300 259 170 227 277 290 237 208 195 205 206 176 122 137 119 152 226 219 157 212 298 238 185 199 182 227 238 212 265 306 200 189 194 190 164
276 270 267 265 254 248 246 257 259 279 289 268 265 285 288 284 292 318 346 237 337 247 77 306 290 159 161 178 186 211 209 164 161 182 227 255 298 165 245 247 248 211 223 204 247 305 226 288 298 239 213 197 171 176
278 275 269 262 254 244 241 247 253 262 273 260 256 261 288 297 263 226 203 312 338 283 60 312 305 272 148 139 118 135 159 230 188 242 231 241 264 186 245 244 231 216 224 235 221 184 265 207 239 182 173 170 168 160
276 277 274 264 254 242 237 237 247 253 259 237 239 253 262 284 289 262 248 235 234 153 88 239 271 328 178 165 190 157 150 87 230 258 272 204 358 195 258 243 259 258 276 267 243 214 234 19 129 159 129 132 138 154
272 277 273 268 257 242 235 231 231 240 241 215 214 238 270 229 229 240 224 246 225 206 216 156 184 245 140 132 114 75 123 219 170 222 237 149 207 224 234 235 235 226 218 250 233 195 185 196 197 166 153 166 171 191
275 270 275 269 261 247 231 228 219 212 204 173 168 183 270 218 190 217 141 25 9 272 312 221 70 226 123 139 179 113 78 226 250 239 124 212 257 259 261 238 235 247 253 200 176 237 213 213 191 188 199 193 191 176
280 274 272 272 262 252 228 220 213 180 168 163 171 217 162 176 221 45 225 142 331 281 200 227 183 155 216 120 195 216 181 145 300 249 179 251 265 244 248 233 212 251 243 225 228 261 208 198 190 192 193 188 179 176
280 279 274 270 266 252 229 210 206 180 182 184 160 141 166 81 31 127 214 316 182 232 232 164 204 159 172 339 93 250 160 93 235 117 172 261 252 249 240 252 279 277 268 250 214 222 235 229 215 184 167 163 172 178
274 283 277 272 264 251 229 206 204 189 167 146 146 98 114 235 331 205 202 216 206 190 178 154 77 71 76 95 59 100 145 224 87 102 234 234 257 275 262 269 288 257 290 226 167 192 242 239 206 170 147 175 178 178
278 275 284 271 268 255 226 204 198 181 177 173 165 213 191 207 236 203 204 175 176 129 148 130 109 119 348 72 157 130 250 45 335 256 236 246 238 225 218 258 242 271 205 184 163 173 177 154 166 182 186 176 171 173
286 283 278 278 269 261 222 204 190 177 165 198 179 218 209 218 266 239 38 95 193 148 133 104 63 112 133 110 216 52 4 256 220 235 242 238 225 210 256 241 234 235 214 209 173 162 181 183 180 164 171 176 183 184
277 286 271 269 276 261 214 194 169 174 191 211 240 268 186 92 246 188 170 255 180 153 94 77 122 107 227 148 139 210 173 231 253 225 242 276 222 231 248 243 236 225 214 219 201 197 191 183 180 176 174 184 187 189
269 254 263 270 275 244 195 157 147 171 198 208 232 218 180 166 213 182 151 188 166 149 177 132 153 200 118 112 229 186 209 222 235 259 219 219 209 217 218 229 226 210 216 225 222 211 206 198 181 172 181 198 198 199
255 254 260 262 260 205 172 138 166 192 211 217 202 197 210 194 155 162 163 150 152 198 146 200 126 157 193 198 222 228 233 253 228 235 228 226 231 236 225 237 219 206 215 224 221 218 205 185 185 207 209 201 196 199
252 255 262 267 233 146 161 197 197 211 215 184 173 149 181 195 193 129 147 174 97 101 115 87 179 196 218 205 201 204 225 213 231 231 224 221 224 228 230 228 242 234 224 219 211 210 208 210 211 208 205 197 195 204
249 248 250 257 219 148 167 210 197 230 199 201 148 166 188 207 157 166 157 164 160 168 206 220 217 211 202 208 200 215 198 181 173 228 259 240 225 217 224 221 225 235 232 236 234 225 223 222 225 221 213 198 194 203
258 252 251 242 197 184 265 179 191 224 163 192 146 154 197 91 162 179 177 153 174 214 233 214 223 243 226 229 211 199 210 174 199 201 214 244 227 216 237 242 243 230 205 207 211 222 220 226 220 209 205 202 213 218
249 236 221 189 153 188 245 220 235 157 158 145 148 164 173 178 190 190 141 201 228 228 207 210 227 236 245 247 243 222 235 217 228 230 240 251 253 255 240 232 199 224 221 228 218 219 223 225 214 212 204 208 209 205
225 210 160 162 185 193 226 169 196 176 163 186 152 184 209 216 220 138 200 216 241 195 221 225 230 232 241 251 259 236 226 222 240 232 236 240 238 245 250 249 226 218 233 240 228 226 224 221 209 206 202 189 190 190
192 172 193 199 191 197 167 192 187 142 138 183 176 206 211 197 154 214 239 236 234 183 214 218 212 234 245 247 243 244 243 231 239 249 245 234 243 247 235 246 238 233 230 247 233 226 224 208 202 188 182 176 181 182
205 211 214 168 142 163 184 157 168 198 205 169 197 222 199 176 191 225 241 251 207 218 217 214 219 223 233 244 248 243 234 220 216 231 247 212 234 253 250 245 247 250 246 223 205 206 206 197 183 177 178 181 181 184
213 210 194 176 155 180 186 169 189 189 140 174 220 180 140 172 201 241 229 214 225 219 217 217 220 227 234 230 238 236 234 216 203 221 246 222 211 215 233 233 248 264 234 232 215 197 187 185 178 179 187 193 190 182
213 212 210 169 141 118 114 20 108 142 176 202 173 157 167 210 231 245 247 229 233 222 221 221 205 211 225 229 229 236 230 206 200 224 230 225 229 231 223 209 220 251 255 226 220 214 192 184 185 189 186 184 187 194
206 190 191 176 157 124 145 174 184 200 211 180 146 183 188 202 225 224 213 255 239 240 225 223 216 215 213 219 222 215 212 207 207 221 244 254 249 240 238 239 243 246 255 246 226 218 212 203 191 183 180 179 183 199
205 174 138 158 130 179 205 194 208 218 172 164 179 202 228 223 233 233 252 235 250 209 163 231 215 193 193 203 205 206 197 179 156 175 222 243 292 253 235 235 232 224 223 225 213 218 216 208 196 188 186 186 192 191
206 172 164 165 182 214 222 188 220 227 193 184 212 308 291 267 243 241 244 234 180 217 231 217 206 175 181 179 188 208 207 205 202 197 203 224 225 223 199 198 199 200 200 198 186 176 171 162 157 160 168 168 173 174
147 163 133 176 225 234 217 265 297 187 244 233 237 226 250 283 295 241 233 237 236 228 190 198 202 205 174 184 193 191 233 225 225 229 230 230 191 169 163 176 181 183 185 181 174 165 158 158 161 159 160 163 169 173
151 187 173 198 255 284 345 158 205 225 252 209 253 278 312 353 247 254 235 223 192 210 229 220 195 224 224 223 219 215 221 224 222 233 230 227 217 209 202 186 180 179 177 175 168 165 169 163 158 157 160 166 170 179
129 116 84 128 115 288 231 132 239 265 224 230 244 201 210 236 251 247 225 230 222 227 222 220 229 232 234 232 225 227 233 243 248 232 225 221 213 203 191 184 181 180 176 169 169 172 172 168 163 165 167 169 174 172
Height
829 826 826 826 825 824 822 822 822 821 820 820 819 817 816 813 809 808 806 807 809 810 808 806 806 810 814 815 810 806 809 808 811 811 814 817 821 818 816 806 790 796 808 807 812 804 792 768 769 768 761 760 758 760
826 824 821 823 822 823 822 821 819 819 819 818 818 818 816 814 811 808 807 806 807 809 807 804 802 801 802 801 804 808 806 806 809 814 821 823 815 826 818 803 799 802 788 788 790 776 759 763 756 756 759 759 759 759
822 821 819 817 819 819 820 819 819 816 817 818 816 817 816 814 812 810 808 807 806 807 807 805 801 799 800 802 803 806 807 804 806 805 812 814 811 813 810 814 794 788 789 786 775 754 760 757 754 754 755 756 754 756
816 818 816 813 815 814 816 817 816 816 815 816 817 815 815 814 812 810 808 807 808 808 810 803 799 799 799 800 802 803 805 804 805 807 809 811 807 803 804 796 798 783 787 780 779 761 758 753 751 747 750 751 753 755
808 812 813 811 810 811 812 813 813 812 813 813 814 816 814 812 811 810 809 807 807 810 810 802 797 797 798 800 803 804 804 805 808 810 813 808 805 804 802 804 795 775 767 769 758 749 748 746 743 743 746 747 749 752
803 804 807 808 807 807 807 810 809 810 809 811 810 813 814 812 811 810 808 808 807 807 810 808 797 795 797 799 801 805 806 807 807 807 806 801 798 796 800 793 756 756 753 750 747 747 749 746 745 744 747 748 750 752
797 798 800 802 803 804 803 806 808 807 806 807 810 808 811 811 810 809 810 807 806 807 810 809 802 795 795 798 800 801 804 806 807 805 804 801 799 799 796 783 743 745 745 745 746 746 745 744 741 743 744 746 748 750
790 792 793 795 797 798 799 800 805 806 804 803 806 809 808 810 809 807 804 804 804 806 808 820 806 799 793 797 799 800 801 804 804 801 801 798 798 800 784 744 743 741 740 740 739 740 739 740 741 743 745 748 751 754
783 785 786 787 789 792 795 796 798 804 803 802 804 806 808 807 806 802 802 803 803 807 811 813 810 801 793 795 797 801 800 804 800 798 798 796 790 781 739 739 738 737 735 733 736 737 737 738 740 743 745 747 748 750
776 778 780 780 781 783 788 793 794 798 802 801 804 805 806 801 800 802 799 802 804 801 803 801 797 800 795 798 796 799 801 800 808 791 793 792 769 740 731 729 730 732 734 736 737 739 738 736 736 737 736 739 742 746
771 770 772 775 774 776 780 786 791 795 800 798 800 802 799 801 802 800 804 804 805 803 791 791 792 795 792 798 794 793 802 804 809 795 792 784 764 736 722 723 724 726 727 727 727 726 727 726 730 732 736 737 741 745
764 765 766 765 768 768 772 777 785 789 791 793 792 796 799 801 806 806 808 803 801 791 790 791 788 788 792 792 793 799 798 803 798 798 795 777 741 723 722 722 722 723 722 721 721 723 725 726 726 728 732 736 740 744
755 757 759 757 760 761 764 770 776 782 787 791 791 794 799 803 809 800 790 788 799 778 782 786 793 791 792 792 797 800 800 790 793 804 779 750 725 722 723 723 721 718 718 718 718 723 726 728 730 732 736 737 738 740
748 750 750 752 752 753 756 761 769 777 785 787 789 790 788 797 781 763 758 752 755 765 772 777 785 790 795 796 796 802 789 793 807 789 757 736 722 716 718 720 721 718 719 719 720 720 723 726 728 727 729 736 741 745
740 742 743 745 745 747 749 753 760 771 774 778 779 770 764 755 763 760 762 758 759 757 760 773 782 782 790 797 797 800 803 801 784 757 736 724 717 717 717 718 720 720 721 721 720 722 723 723 726 728 730 732 736 741
738 737 735 737 737 739 742 746 754 760 766 767 765 762 754 761 762 761 760 759 758 757 759 763 780 788 784 782 794 789 791 776 747 744 728 725 717 718 717 716 716 718 719 720 719 719 721 723 725 728 730 731 733 735
734 730 730 732 733 732 736 738 748 753 753 748 741 741 742 743 740 743 743 748 753 754 754 761 769 759 780 793 780 761 754 738 730 726 725 720 716 715 715 714 714 716 718 719 719 719 719 722 724 725 727 728 731 731
724 725 727 727 727 728 729 732 739 737 734 729 728 733 736 731 734 738 738 742 748 749 749 753 759 770 765 757 741 727 728 725 724 719 716 713 712 711 712 713 710 710 712 713 715 716 719 720 721 721 722 724 727 731
717 718 720 722 722 721 727 729 729 722 717 721 720 727 730 727 725 724 732 737 740 741 743 755 759 751 729 721 713 713 721 720 711 709 708 705 705 705 704 705 707 706 706 707 709 710 710 712 711 713 716 720 723 724
712 714 715 717 718 716 717 720 721 716 711 710 714 722 726 723 720 722 726 731 738 740 740 741 722 708 703 699 701 700 700 702 707 706 703 700 698 698 698 698 698 696 698 701 702 703 706 705 705 707 709 712 716 718
705 705 708 710 709 711 710 707 708 704 703 704 708 713 718 721 721 720 722 725 731 727 718 702 698 689 689 688 689 691 693 695 697 696 693 695 691 692 691 690 690 691 691 691 694 694 698 697 695 698 703 705 706 709
694 698 699 700 704 707 707 702 698 697 703 701 706 705 712 713 717 715 717 718 707 681 684 685 682 683 683 680 678 680 681 684 683 683 683 684 686 686 685 683 685 685 684 681 683 684 684 687 691 693 696 697 702 707
690 691 693 695 696 698 693 695 694 695 695 697 701 698 702 706 705 703 702 695 673 668 669 671 672 672 671 666 668 668 669 672 674 674 673 673 674 673 673 672 672 673 673 671 673 675 676 678 682 686 690 694 697 703
683 684 685 683 683 685 689 688 690 692 693 693 689 688 696 697 697 696 686 665 652 661 661 661 663 661 661 660 657 651 655 662 664 666 663 664 666 663 662 661 662 661 661 662 664 668 671 672 675 678 683 689 693 697
677 674 672 664 672 686 683 684 690 688 684 695 692 683 690 691 687 683 667 660 653 652 649 648 645 643 641 638 640 640 643 649 653 655 650 652 655 655 653 652 653 652 654 657 658 660 663 666 670 673 678 682 686 691
660 656 655 653 665 670 673 681 682 686 689 692 681 686 688 681 680 668 657 640 631 630 629 625 627 631 632 631 629 630 629 634 643 646 639 641 642 644 643 645 645 643 644 647 651 655 659 661 664 667 672 677 682 687
648 643 650 647 653 662 668 670 670 676 684 676 679 681 675 667 661 642 630 620 607 604 606 609 613 616 615 617 618 619 621 627 632 633 629 629 631 632 633 635 638 637 639 641 644 647 650 655 659 662 668 675 679 682
640 642 641 643 649 660 666 673 671 667 660 659 662 671 658 647 628 617 608 599 598 597 599 600 602 604 606 606 608 614 619 623 628 629 626 626 625 626 626 628 630 633 635 638 640 642 646 649 653 658 663 669 675 679
631 631 636 641 651 652 647 650 646 637 629 637 639 643 635 624 610 604 596 595 595 597 599 599 598 598 601 603 606 608 612 617 624 628 627 622 622 617 617 619 624 627 630 635 637 640 643 646 650 655 661 667 672 677
620 623 629 645 636 632 624 626 629 625 622 621 619 619 615 607 597 594 593 593 595 594 589 590 594 593 596 601 603 607 607 608 608 611 613 612 612 611 612 614 617 621 626 630 635 640 645 648 652 656 661 666 672 676
608 618 631 629 625 624 623 625 623 619 622 622 617 613 596 602 594 587 585 583 583 586 588 588 588 588 590 594 598 600 603 598 598 600 603 605 606 608 609 611 614 619 624 628 633 637 641 645 649 653 658 664 670 674
607 605 616 627 626 629 627 625 624 620 620 621 614 616 608 605 598 581 572 575 579 581 576 576 579 578 576 576 580 583 583 584 588 591 595 598 602 605 607 609 612 617 621 626 631 635 639 643 648 651 657 663 668 673
608 616 628 625 622 622 624 622 622 612 614 608 604 601 596 585 569 562 558 557 556 557 560 560 559 562 565 567 571 574 577 580 583 586 589 592 595 598 601 605 609 614 618 623 627 633 638 641 646 650 656 662 667 671